Torna al catalogo

CZ-4 DEB

AttivoSSO
NORAD 20915·DEBRIS·🇨🇳 China

Lanciato Sep 3, 1990 da Taiyuan Satellite Launch Center

Loading…

Prossimi Passaggi (prossime 24 ore)

TLE

AggiornatoSource: Space-Track

Epoca: Sep 13, 2026, 21:57 UTC

1 20915U 90081BY  26256.91479243  .00000422  00000-0  18715-3 0  9998
2 20915  98.5615 248.6767 0036749 118.3455 308.2018 14.27675833861473

Traccia CZ-4 DEB in tempo reale con AllMySat

Download on the App Store